Location: La Plant
(45.1447°N, 100.6515°W)
Time: 22:42:44
(UTC+00:00)

ISS - Pass Details

Date: 03 December 2020
Orbit: 418 x 419 km, 51.6° (Epoch: 18 January)

Event Time Altitude Azimuth Distance (km) Brightness Sun altitude
Rises 00:52:47 0° 299° (WNW) 2,370 0.8 -19.0°
Reaches altitude 10° 00:54:58 10° 307° (NW) 1,503 -0.4 -19.3°
Enters shadow 00:57:39 37° 353° (N) 672 -2.8 -19.8°
